Hourly Data Report for June 26, 2017

BORDEN AWOS
ONTARIO

44°16'20.000" N
79°54'42.000" W
222.50 m
611B002
71534
YBN

Download Data

Hourly Data (June 2017)
Hourly Data Report for June 26, 2017
TIME
LST
Temp Definition
°C
Dew Point Definition
°C
Rel Hum Definition
%
Precip. Amount Definition
mm

Wind Dir Definition
10's deg

Wind Spd Definition
km/h
Visibility Definition
km
Stn Press Definition
kPa
Hmdx Definition


Wind Chill Definition


Weather Definition


00:00 9.2 9.1 99     0 0.8 98.85     LegendNANA
01:00 8.9 8.7 99     0 14.5 98.84     LegendNANA
02:00 7.9 7.8 99   24 4 8.0 98.82     LegendNANA
03:00 6.8 6.8 100     0 14.5 98.80     LegendNANA
04:00 7.1 7.1 100     0 14.5 98.82     LegendNANA
05:00 8.5 8.3 99     0 14.5 98.84     LegendNANA
06:00 11.1 10.7 97     0 14.5 98.86     LegendNANA
07:00 12.1 11.6 97   19 6 14.5 98.88     LegendNANA
08:00 13.2 12.7 97   17 6 14.5 98.88     LegendNANA
09:00 14.9 13.7 92   12 7 14.5 98.86     LegendNANA
10:00 16.0 12.8 81   15 7 14.5 98.81     Rain
11:00 16.7 12.7 77   17 4 14.5 98.78     Rain
12:00 16.5 12.6 78   14 7 14.5 98.72     Rain
13:00 13.5 11.5 88   33 11 14.5 98.75     Rain
14:00 13.9 12.1 89   2 4 14.5 98.71     LegendNANA
15:00 17.3 11.9 70   30 6 14.5 98.71     LegendNANA
16:00 19.1 10.9 59   30 9 14.5 98.66     LegendNANA
17:00 16.1 11.8 76   29 9 14.5 98.66     LegendNANA
18:00 16.8 11.9 73   33 7 14.5 98.65     LegendNANA
19:00 16.5 12.1 75     0 14.5 98.65     LegendNANA
20:00 13.9 11.7 87   15 7 14.5 98.66     LegendNANA
21:00 12.7 11.6 93   16 9 14.5 98.67     Rain
22:00 12.1 11.5 96   21 6 14.5 98.69     LegendNANA
23:00 12.3 10.7 90   23 4 14.5 98.67     LegendNANA

Notes on Data Quality.

Legend

  • E = Estimated
  • M = Missing
  • NA = Not Available*
  • [empty] = Indicates an unobserved value
Date modified: